DW9142 Weather Reports


Display with metric or nautical units.
time (UTC)temp
F
wind
direction
speed
MPH
gust
MPH
rain 1hr
in
rain 24hr
in
rain mn
in
humidity
%
barometer
mb
20260503174622 56 0.0 0.0 0.00 0.00 0.00 36 1013.0
20260503173040 56 0.0 0.0 0.00 0.00 0.00 39 1013.0
20260503171536 56 0.0 0.0 0.00 0.00 0.00 38 1012.9
20260503100106 45 0.0 0.0 0.00 0.00 0.00 58 1011.7
20260503081558 43 0.0 0.0 0.00 0.00 0.00 66 1010.9
20260503071615 46 0.0 0.0 0.00 0.00 0.00 59 1010.8
20260503070113 46 0.0 0.0 0.00 0.00 0.00 60 1010.8
20260503054554 49 0.0 0.0 0.00 0.00 0.00 52 1011.0
20260503053037 49 0.0 0.0 0.00 0.00 0.00 53 1011.2
20260503051516 49 0.0 0.0 0.00 0.00 0.00 53 1011.2
20260503050012 49 0.0 0.0 0.00 0.00 0.00 52 1011.3
20260503044550 49 0.0 0.0 0.00 0.00 0.00 52 1011.5
20260503043048 50 0.0 0.0 0.00 0.00 0.00 51 1011.5
20260503041530 50 0.0 0.0 0.00 0.00 0.00 52 1011.4
20260503040020 50 0.0 0.0 0.00 0.00 0.00 50 1011.6
20260503034601 50 0.0 0.0 0.00 0.00 0.00 51 1011.5
20260503033100 50 0.0 0.0 0.00 0.00 0.00 50 1011.4
20260503031538 51 0.0 0.0 0.00 0.00 0.00 52 1011.4
20260503030034 51 0.0 0.0 0.00 0.00 0.00 52 1011.4
20260503024507 51 0.0 0.0 0.00 0.00 0.00 49 1011.5
20260503023002 52 0.0 0.0 0.00 0.00 0.00 53 1011.4
20260503021541 52 0.0 0.0 0.00 0.00 0.00 47 1011.4
20260503020043 53 0.0 0.0 0.00 0.00 0.00 46 1011.4
20260503014522 53 0.0 0.0 0.00 0.00 0.00 46 1011.3
20260503013029 53 0.0 0.0 0.00 0.00 0.00 46 1011.4
20260503011513 54 0.0 0.0 0.00 0.00 0.00 46 1011.3
20260503010009 54 0.0 0.0 0.00 0.00 0.00 44 1011.3
20260503004505 54 0.0 0.0 0.00 0.00 0.00 44 1011.0
20260503003102 54 0.0 0.0 0.00 0.00 0.00 46 1010.8
20260503001556 55 0.0 0.0 0.00 0.00 0.00 44 1010.7
20260503000051 56 0.0 0.0 0.00 0.00 0.00 42 1010.6
20260502234534 56 0.0 0.0 0.00 0.00 0.00 41 1010.6
20260502233026 57 0.0 0.0 0.00 0.00 0.00 39 1010.4
20260502231504 57 0.0 0.0 0.00 0.00 0.00 42 1010.6
20260502224540 58 0.0 0.0 0.00 0.00 0.00 37 1010.4
20260502223039 58 0.0 0.0 0.00 0.00 0.00 43 1010.2
20260502221514 58 0.0 0.0 0.00 0.00 0.00 41 1010.2
20260502220013 59 0.0 0.0 0.00 0.00 0.00 44 1010.2
20260502214550 60 0.0 0.0 0.00 0.00 0.00 39 1010.4
20260502213048 59 0.0 0.0 0.00 0.00 0.00 41 1010.3
20260502211523 60 0.0 0.0 0.00 0.00 0.00 37 1010.1
20260502210017 61 0.0 0.0 0.00 0.00 0.00 34 1009.9
20260502204603 61 0.0 0.0 0.00 0.00 0.00 36 1009.9
20260502203117 60 0.0 0.0 0.00 0.00 0.00 38 1010.2
20260502201537 61 0.0 0.0 0.00 0.00 0.00 39 1010.2
20260502200026 64 0.0 0.0 0.00 0.00 0.00 35 1010.4
20260502194504 61 0.0 0.0 0.00 0.00 0.00 37 1010.5
20260502193119 63 0.0 0.0 0.00 0.00 0.00 34 1010.7
20260502191540 64 0.0 0.0 0.00 0.00 0.00 33 1011.0
20260502190041 61 0.0 0.0 0.00 0.00 0.00 38 1011.3
20260502184520 62 0.0 0.0 0.00 0.00 0.00 38 1011.5
20260502183014 62 0.0 0.0 0.00 0.00 0.00 40 1011.6
20260502181510 62 0.0 0.0 0.00 0.00 0.00 45 1011.5